Location: Forst
(46.9333°N, 15.4333°E)
Time: 07:06:50
(UTC+00:00)

Lacrosse 5 rocket - Pass Details

Date: 25 April 2021
Orbit: 460 x 634 km, 57.0° (Epoch: 12 May)

Event Time Altitude Azimuth Distance (km) Brightness Sun altitude
Rises 20:24:26 0° 309° (NW) 2,760 6.4 -20.7°
Reaches altitude 10° 20:26:40 10° 314° (NW) 1,890 5.2 -20.9°
Maximum altitude 20:30:55 55° 32° (NNE) 719 1.9 -21.4°
Enters shadow 20:31:55 44° 79° (E) 835 2.0 -21.5°
